SCP
0 0 0 0 0 -0 -0 0 0 0 0 0 1 0 0 1 1 0 0 1 1 2 2 1 1 1 1 0 0 1 0 0 1 0 1 1 1 1 1 2 1 1 1 2
0 0 0 0 0 0 0 0 0 0 0 0 1 0 0 1 1 0 1 1 2 2 2 1 2 2 2 3 2 1 0 0 0 0 0 0 0 0 0 0 0 0 0 0
0 0 0 0 0 0 0 0 0 0 0 -0 2 0 1 1 0 0 1 1 1 1 1 1 2 3 3 2 2 1 1 0 0 0 0 0 0 0 0 0 0 0 0 0
0 0 0 0 0 0 0 0 0 0 0 -0 1 0 1 1 1 1 2 1 1 1 1 1 1 1 1 1 1 1 0 0 0 0 0 0 -0 -0 0 0 0 0 0 0
0 0 0 0 0 0 0 0 -0 0 0 0 1 0 0 1 4 2 2 1 2 1 1 1 1 1 1 1 1 1 1 1 1 0 0 0 -0 0 0 0 0 0 0 0
0 0 0 0 0 0 0 0 -0 0 1 0 1 1 0 1 1 2 2 2 2 2 1 1 1 1 1 1 1 1 0 0 0 0 0 0 0 0 0 0 0 0 0 0
0 0 0 0 0 0 0 1 1 1 1 1 1 2 3 2 4 3 2 2 2 1 2 1 1 1 1 1 1 0 0 0 0 0 0 0 0 0 0 0 0 0 0 0
0 0 0 0 0 1 2 1 1 1 2 1 2 5 3 4 4 2 2 2 1 2 1 1 1 1 1 0 0 0 0 0 0 0 0 0 0 0 0 0 0 0 0 0
0 0 0 0 0 1 1 3 5 4 2 2 3 2 3 4 3 3 2 2 2 1 1 1 1 1 1 0 0 0 0 0 0 0 0 0 0 0 0 0 0 0 0 0
0 0 1 0 1 1 1 1 1 2 1 1 3 2 2 2 1 1 2 2 1 1 1 1 1 1 0 0 0 0 0 0 0 0 0 0 0 0 0 0 0 0 0 0
0 0 0 1 0 0 0 1 1 1 1 1 2 1 1 1 1 2 2 2 1 1 0 1 1 1 0 0 0 0 0 0 0 0 0 0 0 0 0 0 0 0 0 0
0 0 0 0 0 0 0 0 0 0 0 1 1 1 0 0 1 1 1 2 1 1 1 1 0 0 0 0 0 0 0 0 0 0 0 0 0 0 0 0 0 -0 -0 0
0 0 0 0 0 1 1 0 0 0 1 0 0 1 1 1 1 2 1 1 1 0 0 0 0 0 0 0 0 0 0 0 0 0 0 0 0 0 0 0 -0 0 -0 -0
0 0 0 0 0 0 0 0 0 0 0 0 0 1 2 1 1 1 1 1 0 0 0 0 0 0 0 0 0 0 0 0 0 0 0 0 0 0 0 0 0 0 0 -0
0 0 0 0 0 0 0 0 1 1 1 1 1 1 1 0 0 0 0 0 0 0 0 0 0 0 0 0 0 0 0 0 0 0 0 0 0 0 0 0 0 0 0 0
0 0 0 0 0 0 0 0 0 1 1 1 0 1 1 1 0 0 0 0 0 0 0 0 0 0 0 0 0 0 0 0 0 0 0 0 0 0 0 0 0 0 0 0
0 0 0 0 0 0 0 0 1 1 1 1 1 1 1 1 0 0 0 0 0 0 0 0 0 0 0 0 0 -0 0 0 0 0 0 0 0 0 0 0 0 0 0 0
0 0 0 0 0 0 0 0 0 1 1 1 1 0 0 0 0 0 0 0 0 0 0 0 0 0 0 0 0 0 0 0 0 0 0 0 0 0 0 0 0 0 0 0
0 0 0 0 0 0 0 0 0 0 1 0 0 0 0 0 0 0 0 0 0 0 0 0 0 0 0 0 0 0 0 0 0 0 0 0 0 0 0 0 0 0 0 0
0 0 0 0 0 0 0 0 0 0 0 0 0 0 0 0 0 0 0 0 0 0 0 0 0 0 0 0 0 0 0 0 0 0 0 0 0 0 0 0 0 0 0 0
0 0 0 0 0 0 0 0 0 0 0 0 0 0 0 0 0 0 0 0 0 0 0 0 0 0 0 0 0 0 0 0 0 0 0 0 0 0 0 0 0 0 0 0
0 0 0 0 0 0 1 1 0 0 0 0 0 0 0 0 0 0 0 0 0 0 0 0 0 0 0 0 0 0 0 0 0 0 0 0 0 0 0 0 0 0 0 0
0 0 0 0 0 0 0 0 0 0 0 0 0 0 0 0 0 0 0 0 0 0 0 -0 0 0 0 0 0 0 0 0 0 0 0 0 0 0 0 0 0 0 0 0
0 0 0 0 0 0 0 0 0 0 0 -0 0 0 0 0 0 -0 0 0 0 0 -0 0 0 0 0 0 0 0 0 0 0 0 0 0 0 0 0 0 0 0 0 0
0 0 0 -0 0 0 0 0 -0 0 0 0 0 0 -0 -0 -0 0 0 0 0 0 -0 -0 -0 0 0 0 0 0 0 0 0 0 0 0 0 0 0 0 0 0 0 0
0 0 0 0 0 0 0 -0 -0 -0 -0 0 0 -0 0 0 0 0 -0 0 0 0 -0 0 0 0 0 0 0 0 0 0 0 0 0 0 0 0 0 0 0 0 0 0
0 0 0 0 0 0 0 -0 -0 -0 0 0 -0 -0 0 -0 0 0 0 0 0 0 0 0 0 0 0 0 0 0 0 0 0 0 0 0 0 0 0 0 0 0 0 0
Wind_Speed_500mb
43 42 39 24 36 40 39 36 42 38 45 34 20 20 10 20 19 20 21 21 20 18 17 20 18 17 12 13 30 33 27 28 31 29 16 2 6 15 20 33 35 29 35 34
43 45 48 48 35 37 30 35 44 39 46 33 32 10 5 15 12 15 18 23 25 22 20 18 20 18 21 25 29 29 42 33 31 31 28 29 22 12 7 13 23 25 23 20
37 44 44 42 37 18 60 53 41 18 44 72 40 15 8 4 6 13 15 14 16 21 21 20 25 33 37 33 32 31 37 48 29 33 24 21 24 24 39 40 30 33 33 31
32 40 47 43 50 47 53 43 31 13 17 111 62 44 4 10 16 12 18 16 17 21 25 27 32 34 33 32 33 36 29 18 11 12 17 17 25 30 40 31 22 20 23 27
31 36 45 49 39 18 23 26 63 22 25 34 12 16 16 16 12 13 23 20 19 24 31 35 38 36 39 34 28 23 18 19 15 9 7 10 12 17 16 16 19 25 28 27
29 38 47 41 25 32 17 18 15 55 34 43 14 12 17 22 22 26 26 32 31 29 30 36 40 39 33 28 22 20 18 18 19 18 18 16 11 10 12 11 13 12 15 18
28 30 34 27 33 24 27 21 38 29 39 41 30 16 14 26 35 36 35 34 34 31 31 36 37 34 33 28 23 19 18 15 20 16 10 6 8 7 5 8 15 11 15 15
27 35 44 50 31 19 20 17 31 31 36 35 19 5 18 32 39 35 36 35 34 35 35 33 32 32 31 28 22 18 14 13 10 7 8 5 7 11 13 14 10 15 17 15
17 22 14 21 28 24 27 35 35 33 33 26 10 11 27 34 36 37 35 33 29 30 33 32 29 27 26 22 17 14 11 6 4 6 7 8 8 9 7 16 12 11 11 13
26 21 33 26 32 35 39 39 34 23 31 19 15 21 27 36 43 37 38 33 30 30 32 33 25 22 20 17 11 9 5 3 6 7 9 9 5 8 8 9 10 11 12 13
17 25 33 5 37 42 46 37 34 35 29 21 31 26 32 36 36 40 40 38 37 39 21 30 36 27 22 13 5 1 2 1 2 2 5 7 9 7 7 15 19 15 13 14
16 24 16 37 43 39 32 42 51 42 85 16 23 26 32 48 44 40 41 44 37 33 28 26 27 24 15 11 9 8 4 1 4 2 5 8 10 15 23 22 30 27 23 20
25 30 36 43 34 25 30 41 54 40 46 57 25 28 47 35 42 41 36 38 41 37 38 30 21 16 14 12 12 8 5 2 4 6 8 11 12 14 16 23 24 25 24 30
24 21 32 29 35 35 31 32 20 21 21 68 40 25 29 41 45 45 43 39 39 35 29 24 19 16 14 13 11 7 4 6 2 8 10 13 14 19 19 19 19 19 26 29
16 26 36 38 29 30 30 28 18 10 8 5 11 22 23 28 29 27 32 32 30 27 24 24 21 18 16 12 9 6 3 5 8 11 15 16 20 14 20 23 22 22 25 30
30 34 37 31 31 32 31 31 25 7 14 23 23 24 38 42 30 26 27 28 28 26 24 21 18 17 16 13 9 9 13 14 13 13 15 21 19 23 26 23 26 28 32 34
29 29 31 33 33 31 29 24 23 11 9 17 33 42 37 38 45 37 29 23 22 22 19 18 17 16 15 11 8 8 12 16 17 22 25 27 27 30 39 29 27 32 35 36
26 26 28 30 30 29 25 18 16 14 19 35 41 52 51 45 38 39 30 22 18 17 15 15 16 14 12 10 9 10 15 21 29 39 35 36 36 36 37 36 32 35 36 35
24 24 24 25 24 22 21 15 17 21 30 33 41 42 44 45 33 30 26 21 17 19 16 14 14 14 9 11 12 15 23 30 34 36 27 20 23 34 46 46 36 33 31 27
22 21 21 21 19 16 11 6 15 20 32 38 42 41 39 33 28 25 20 14 10 16 13 10 6 7 6 14 17 25 31 34 26 26 30 40 35 42 36 32 29 27 31 27
21 19 16 17 15 11 11 17 20 26 33 33 33 33 28 23 22 17 12 20 17 13 8 6 6 6 3 13 26 28 25 26 30 33 31 30 34 28 30 21 23 22 18 21
20 18 15 13 12 12 10 10 15 25 30 26 26 25 24 19 15 9 4 13 6 3 5 6 10 13 14 29 19 22 26 19 18 21 19 18 20 19 13 12 13 17 22 21
21 18 13 10 9 11 16 26 27 34 35 25 24 24 18 15 12 9 12 5 1 5 5 9 14 24 30 20 17 19 23 19 18 17 16 17 13 15 16 17 21 21 29 28
18 9 5 7 12 5 5 18 23 28 29 26 22 20 14 10 6 9 6 5 2 6 5 11 12 21 20 13 17 21 17 20 26 19 19 22 23 14 19 15 19 24 21 20
9 8 2 0 4 9 12 10 15 30 31 23 21 16 11 11 2 10 6 1 11 13 13 11 18 13 15 13 18 20 20 24 22 23 21 20 20 23 23 22 22 23 24 25
5 1 4 7 12 8 14 34 25 25 23 20 15 13 12 12 6 2 7 6 7 12 10 11 11 14 17 15 19 18 19 20 19 19 23 26 26 27 29 31 30 29 30 33
18 19 13 9 13 7 8 17 22 19 15 20 19 12 10 5 3 5 5 6 11 12 12 12 16 13 17 17 20 20 20 21 22 22 25 26 22 23 27 32 34 46 30 33
Wind_Direction_500mb
283 294 287 240 260 276 280 268 265 279 284 280 73 17 314 161 173 174 167 166 164 157 150 164 184 198 203 226 179 157 174 206 160 128 146 114 283 252 236 225 228 225 221 221
281 288 286 280 278 261 261 265 273 270 273 303 46 91 170 130 171 182 182 165 161 158 154 157 152 177 179 152 184 189 186 160 154 141 81 45 13 329 217 209 232 228 208 203
259 268 275 270 218 266 299 308 354 2 333 315 25 347 57 142 196 191 173 162 161 152 161 161 151 168 172 181 170 170 168 151 158 224 253 249 344 273 261 257 268 264 260 248
272 282 274 265 280 225 231 246 263 162 186 268 158 203 182 169 170 178 153 154 151 148 144 146 152 163 153 150 167 154 153 154 163 217 228 218 228 250 249 259 257 249 245 245
266 261 264 272 286 4 4 327 324 301 283 349 75 142 182 141 122 150 159 156 152 140 138 140 148 145 140 138 147 139 137 129 144 160 220 269 229 238 238 227 228 230 237 249
272 273 270 283 36 17 157 262 227 328 335 336 69 321 325 158 181 146 159 153 149 146 136 137 135 135 126 137 136 130 126 129 129 132 156 159 183 225 231 234 247 239 263 257
253 251 259 15 347 325 288 350 340 354 337 334 336 26 98 155 154 166 162 160 157 149 141 138 137 136 132 128 125 120 118 109 109 106 90 136 161 184 208 235 229 248 250 262
277 284 288 12 343 355 356 315 318 335 337 327 317 7 169 162 153 163 161 156 151 144 139 135 136 137 132 126 124 119 113 105 98 118 129 318 296 288 276 283 303 294 309 314
309 313 356 343 343 358 356 342 355 349 320 301 271 205 159 151 155 166 163 153 146 138 129 123 126 127 123 118 121 125 106 88 39 355 323 313 303 308 330 324 326 299 280 281
299 298 2 344 25 19 349 344 325 324 296 267 178 169 167 161 164 162 156 147 140 139 140 130 124 123 122 123 122 114 99 38 335 336 330 335 14 324 328 306 295 296 293 291
301 299 333 224 355 342 327 331 327 321 279 239 135 163 163 167 164 154 152 150 151 133 175 139 142 140 135 132 144 187 236 131 73 295 323 305 325 288 322 305 320 308 286 282
330 337 327 317 321 318 319 315 296 340 322 79 132 162 179 165 169 162 153 151 148 155 160 144 150 148 144 165 180 171 156 101 239 225 303 304 308 311 314 322 339 349 353 349
319 315 312 301 310 325 323 311 310 302 327 327 291 195 172 197 166 155 158 149 155 153 155 155 157 163 171 173 174 156 163 243 301 351 309 313 313 312 307 308 321 327 333 343
303 302 314 311 315 317 310 301 322 307 274 222 245 210 174 176 161 152 157 156 157 155 154 156 164 162 161 160 155 157 187 224 253 294 302 306 312 309 310 307 307 307 315 322
316 308 299 296 306 317 310 300 285 260 237 123 186 138 154 136 136 155 153 151 150 148 150 161 165 162 156 159 160 179 206 260 291 289 292 279 296 308 300 303 297 298 295 303
304 298 295 308 310 306 312 302 289 245 175 168 171 158 144 144 153 151 145 150 154 157 162 163 164 170 168 171 183 228 255 225 268 298 296 294 291 286 293 292 294 290 288 291
316 322 320 303 302 307 304 296 292 284 184 141 146 142 136 143 148 144 154 156 157 154 161 170 171 183 187 202 228 276 289 274 273 279 282 279 274 269 290 278 279 287 286 291
304 306 310 312 309 302 293 284 257 217 152 133 123 129 136 151 146 144 146 149 154 147 157 173 172 182 193 222 252 282 289 289 283 280 272 274 272 271 283 273 289 289 287 295
309 307 309 311 313 304 285 253 209 169 142 146 137 139 144 145 156 149 151 150 159 158 158 165 185 189 205 238 251 293 299 298 295 297 303 303 290 282 284 281 274 284 290 291
307 305 304 310 308 299 275 196 186 159 142 142 136 136 142 148 156 160 158 164 129 137 147 168 154 195 239 276 294 312 307 307 314 311 311 304 298 297 276 273 275 287 292 297
301 293 303 314 310 302 266 231 186 161 153 152 148 144 146 137 182 169 170 167 144 127 157 207 206 236 285 289 309 314 312 317 310 308 303 294 295 291 287 308 292 287 304 298
297 290 288 297 308 280 261 236 215 183 165 152 141 140 141 163 164 167 157 98 138 8 255 256 228 222 291 321 327 333 334 332 319 324 322 318 298 297 315 282 311 310 302 304
281 268 271 276 290 298 260 214 181 178 170 147 139 140 162 166 164 167 199 182 128 273 282 273 268 284 302 324 311 329 325 333 333 335 332 319 304 298 300 315 309 316 308 309
288 254 284 279 254 278 155 130 163 161 158 145 148 153 162 157 169 184 151 239 266 309 298 251 286 305 309 306 325 331 317 315 311 314 317 303 307 276 291 282 291 295 308 308
269 204 180 315 29 133 158 163 141 141 139 143 143 145 166 174 195 150 143 172 304 339 316 290 313 308 320 290 310 303 311 309 292 301 300 293 292 285 275 276 283 287 290 292
13 340 138 120 93 84 170 162 156 150 145 143 155 166 186 138 158 207 270 271 305 299 319 318 316 311 299 302 315 311 303 318 311 294 312 306 302 291 281 272 278 273 280 279
96 96 109 132 150 147 158 131 154 149 143 142 156 161 144 159 214 283 271 275 293 286 279 301 302 275 300 301 303 304 310 314 314 299 307 298 293 316 314 290 298 292 290 293
Wind_Speed_850mb
43 42 39 24 36 40 39 36 42 38 45 34 20 20 10 20 19 20 21 21 20 18 17 20 18 17 12 13 30 33 27 28 31 29 16 2 6 15 20 33 35 29 35 34
43 45 48 48 35 37 30 35 44 39 46 33 32 10 5 15 12 15 18 23 25 22 20 18 20 18 21 25 29 29 42 33 31 31 28 29 22 12 7 13 23 25 23 20
37 44 44 42 37 18 60 53 41 18 44 72 40 15 8 4 6 13 15 14 16 21 21 20 25 33 37 33 32 31 37 48 29 33 24 21 24 24 39 40 30 33 33 31
32 40 47 43 50 47 53 43 31 13 17 111 62 44 4 10 16 12 18 16 17 21 25 27 32 34 33 32 33 36 29 18 11 12 17 17 25 30 40 31 22 20 23 27
31 36 45 49 39 18 23 26 63 22 25 34 12 16 16 16 12 13 23 20 19 24 31 35 38 36 39 34 28 23 18 19 15 9 7 10 12 17 16 16 19 25 28 27
29 38 47 41 25 32 17 18 15 55 34 43 14 12 17 22 22 26 26 32 31 29 30 36 40 39 33 28 22 20 18 18 19 18 18 16 11 10 12 11 13 12 15 18
28 30 34 27 33 24 27 21 38 29 39 41 30 16 14 26 35 36 35 34 34 31 31 36 37 34 33 28 23 19 18 15 20 16 10 6 8 7 5 8 15 11 15 15
27 35 44 50 31 19 20 17 31 31 36 35 19 5 18 32 39 35 36 35 34 35 35 33 32 32 31 28 22 18 14 13 10 7 8 5 7 11 13 14 10 15 17 15
17 22 14 21 28 24 27 35 35 33 33 26 10 11 27 34 36 37 35 33 29 30 33 32 29 27 26 22 17 14 11 6 4 6 7 8 8 9 7 16 12 11 11 13
26 21 33 26 32 35 39 39 34 23 31 19 15 21 27 36 43 37 38 33 30 30 32 33 25 22 20 17 11 9 5 3 6 7 9 9 5 8 8 9 10 11 12 13
17 25 33 5 37 42 46 37 34 35 29 21 31 26 32 36 36 40 40 38 37 39 21 30 36 27 22 13 5 1 2 1 2 2 5 7 9 7 7 15 19 15 13 14
16 24 16 37 43 39 32 42 51 42 85 16 23 26 32 48 44 40 41 44 37 33 28 26 27 24 15 11 9 8 4 1 4 2 5 8 10 15 23 22 30 27 23 20
25 30 36 43 34 25 30 41 54 40 46 57 25 28 47 35 42 41 36 38 41 37 38 30 21 16 14 12 12 8 5 2 4 6 8 11 12 14 16 23 24 25 24 30
24 21 32 29 35 35 31 32 20 21 21 68 40 25 29 41 45 45 43 39 39 35 29 24 19 16 14 13 11 7 4 6 2 8 10 13 14 19 19 19 19 19 26 29
16 26 36 38 29 30 30 28 18 10 8 5 11 22 23 28 29 27 32 32 30 27 24 24 21 18 16 12 9 6 3 5 8 11 15 16 20 14 20 23 22 22 25 30
30 34 37 31 31 32 31 31 25 7 14 23 23 24 38 42 30 26 27 28 28 26 24 21 18 17 16 13 9 9 13 14 13 13 15 21 19 23 26 23 26 28 32 34
29 29 31 33 33 31 29 24 23 11 9 17 33 42 37 38 45 37 29 23 22 22 19 18 17 16 15 11 8 8 12 16 17 22 25 27 27 30 39 29 27 32 35 36
26 26 28 30 30 29 25 18 16 14 19 35 41 52 51 45 38 39 30 22 18 17 15 15 16 14 12 10 9 10 15 21 29 39 35 36 36 36 37 36 32 35 36 35
24 24 24 25 24 22 21 15 17 21 30 33 41 42 44 45 33 30 26 21 17 19 16 14 14 14 9 11 12 15 23 30 34 36 27 20 23 34 46 46 36 33 31 27
22 21 21 21 19 16 11 6 15 20 32 38 42 41 39 33 28 25 20 14 10 16 13 10 6 7 6 14 17 25 31 34 26 26 30 40 35 42 36 32 29 27 31 27
21 19 16 17 15 11 11 17 20 26 33 33 33 33 28 23 22 17 12 20 17 13 8 6 6 6 3 13 26 28 25 26 30 33 31 30 34 28 30 21 23 22 18 21
20 18 15 13 12 12 10 10 15 25 30 26 26 25 24 19 15 9 4 13 6 3 5 6 10 13 14 29 19 22 26 19 18 21 19 18 20 19 13 12 13 17 22 21
21 18 13 10 9 11 16 26 27 34 35 25 24 24 18 15 12 9 12 5 1 5 5 9 14 24 30 20 17 19 23 19 18 17 16 17 13 15 16 17 21 21 29 28
18 9 5 7 12 5 5 18 23 28 29 26 22 20 14 10 6 9 6 5 2 6 5 11 12 21 20 13 17 21 17 20 26 19 19 22 23 14 19 15 19 24 21 20
9 8 2 0 4 9 12 10 15 30 31 23 21 16 11 11 2 10 6 1 11 13 13 11 18 13 15 13 18 20 20 24 22 23 21 20 20 23 23 22 22 23 24 25
5 1 4 7 12 8 14 34 25 25 23 20 15 13 12 12 6 2 7 6 7 12 10 11 11 14 17 15 19 18 19 20 19 19 23 26 26 27 29 31 30 29 30 33
18 19 13 9 13 7 8 17 22 19 15 20 19 12 10 5 3 5 5 6 11 12 12 12 16 13 17 17 20 20 20 21 22 22 25 26 22 23 27 32 34 46 30 33
Wind_Direction_850mb
283 294 287 240 260 276 280 268 265 279 284 280 73 17 314 161 173 174 167 166 164 157 150 164 184 198 203 226 179 157 174 206 160 128 146 114 283 252 236 225 228 225 221 221
281 288 286 280 278 261 261 265 273 270 273 303 46 91 170 130 171 182 182 165 161 158 154 157 152 177 179 152 184 189 186 160 154 141 81 45 13 329 217 209 232 228 208 203
259 268 275 270 218 266 299 308 354 2 333 315 25 347 57 142 196 191 173 162 161 152 161 161 151 168 172 181 170 170 168 151 158 224 253 249 344 273 261 257 268 264 260 248
272 282 274 265 280 225 231 246 263 162 186 268 158 203 182 169 170 178 153 154 151 148 144 146 152 163 153 150 167 154 153 154 163 217 228 218 228 250 249 259 257 249 245 245
266 261 264 272 286 4 4 327 324 301 283 349 75 142 182 141 122 150 159 156 152 140 138 140 148 145 140 138 147 139 137 129 144 160 220 269 229 238 238 227 228 230 237 249
272 273 270 283 36 17 157 262 227 328 335 336 69 321 325 158 181 146 159 153 149 146 136 137 135 135 126 137 136 130 126 129 129 132 156 159 183 225 231 234 247 239 263 257
253 251 259 15 347 325 288 350 340 354 337 334 336 26 98 155 154 166 162 160 157 149 141 138 137 136 132 128 125 120 118 109 109 106 90 136 161 184 208 235 229 248 250 262
277 284 288 12 343 355 356 315 318 335 337 327 317 7 169 162 153 163 161 156 151 144 139 135 136 137 132 126 124 119 113 105 98 118 129 318 296 288 276 283 303 294 309 314
309 313 356 343 343 358 356 342 355 349 320 301 271 205 159 151 155 166 163 153 146 138 129 123 126 127 123 118 121 125 106 88 39 355 323 313 303 308 330 324 326 299 280 281
299 298 2 344 25 19 349 344 325 324 296 267 178 169 167 161 164 162 156 147 140 139 140 130 124 123 122 123 122 114 99 38 335 336 330 335 14 324 328 306 295 296 293 291
301 299 333 224 355 342 327 331 327 321 279 239 135 163 163 167 164 154 152 150 151 133 175 139 142 140 135 132 144 187 236 131 73 295 323 305 325 288 322 305 320 308 286 282
330 337 327 317 321 318 319 315 296 340 322 79 132 162 179 165 169 162 153 151 148 155 160 144 150 148 144 165 180 171 156 101 239 225 303 304 308 311 314 322 339 349 353 349
319 315 312 301 310 325 323 311 310 302 327 327 291 195 172 197 166 155 158 149 155 153 155 155 157 163 171 173 174 156 163 243 301 351 309 313 313 312 307 308 321 327 333 343
303 302 314 311 315 317 310 301 322 307 274 222 245 210 174 176 161 152 157 156 157 155 154 156 164 162 161 160 155 157 187 224 253 294 302 306 312 309 310 307 307 307 315 322
316 308 299 296 306 317 310 300 285 260 237 123 186 138 154 136 136 155 153 151 150 148 150 161 165 162 156 159 160 179 206 260 291 289 292 279 296 308 300 303 297 298 295 303
304 298 295 308 310 306 312 302 289 245 175 168 171 158 144 144 153 151 145 150 154 157 162 163 164 170 168 171 183 228 255 225 268 298 296 294 291 286 293 292 294 290 288 291
316 322 320 303 302 307 304 296 292 284 184 141 146 142 136 143 148 144 154 156 157 154 161 170 171 183 187 202 228 276 289 274 273 279 282 279 274 269 290 278 279 287 286 291
304 306 310 312 309 302 293 284 257 217 152 133 123 129 136 151 146 144 146 149 154 147 157 173 172 182 193 222 252 282 289 289 283 280 272 274 272 271 283 273 289 289 287 295
309 307 309 311 313 304 285 253 209 169 142 146 137 139 144 145 156 149 151 150 159 158 158 165 185 189 205 238 251 293 299 298 295 297 303 303 290 282 284 281 274 284 290 291
307 305 304 310 308 299 275 196 186 159 142 142 136 136 142 148 156 160 158 164 129 137 147 168 154 195 239 276 294 312 307 307 314 311 311 304 298 297 276 273 275 287 292 297
301 293 303 314 310 302 266 231 186 161 153 152 148 144 146 137 182 169 170 167 144 127 157 207 206 236 285 289 309 314 312 317 310 308 303 294 295 291 287 308 292 287 304 298
297 290 288 297 308 280 261 236 215 183 165 152 141 140 141 163 164 167 157 98 138 8 255 256 228 222 291 321 327 333 334 332 319 324 322 318 298 297 315 282 311 310 302 304
281 268 271 276 290 298 260 214 181 178 170 147 139 140 162 166 164 167 199 182 128 273 282 273 268 284 302 324 311 329 325 333 333 335 332 319 304 298 300 315 309 316 308 309
288 254 284 279 254 278 155 130 163 161 158 145 148 153 162 157 169 184 151 239 266 309 298 251 286 305 309 306 325 331 317 315 311 314 317 303 307 276 291 282 291 295 308 308
269 204 180 315 29 133 158 163 141 141 139 143 143 145 166 174 195 150 143 172 304 339 316 290 313 308 320 290 310 303 311 309 292 301 300 293 292 285 275 276 283 287 290 292
13 340 138 120 93 84 170 162 156 150 145 143 155 166 186 138 158 207 270 271 305 299 319 318 316 311 299 302 315 311 303 318 311 294 312 306 302 291 281 272 278 273 280 279
96 96 109 132 150 147 158 131 154 149 143 142 156 161 144 159 214 283 271 275 293 286 279 301 302 275 300 301 303 304 310 314 314 299 307 298 293 316 314 290 298 292 290 293